Flag for Yemen Weather past 2 weeks in Ta'izz, Yemen

Now
75 °F

Partly sunny.


Feels Like: 77 °F
Forecast: 59 / 76 °F
Wind: 8 mph from Northeast

Location: Aden

Current Time: Dec 27, 2014 at 8:22:46 AM

Latest Report: Dec 27, 2014 at 8:00 AM


Visibility: N/A

Pressure: 30.07 "Hg

Humidity: 65%

Dew point: 63 °F

Location of Ta'izzLocation

Historic Weather in Ta'izz — Graph

°F

Ta'izz temperature yesterday

Maximum temperature yesterday: 82 °F (at 11:00 AM)
Minimum temperature yesterday: 73 °F (at 7:00 AM)
Average temperature yesterday: 79 °F

Past Weeks' High & Low Weather Summary

 TemperatureHumidityPressure
High84 °F (Dec 15, 8:00 AM)79% (Dec 18, 3:00 AM)30.42 "Hg (Dec 18, 3:00 AM)
Low70 °F (Dec 24, 7:00 AM)37% (Dec 24, 11:00 AM)29.89 "Hg (Dec 22, 3:00 PM)
Average79 °F62%30.02 "Hg
* Reported Dec 14 9:00 AM — Dec 27 7:00 AM, Ta'izz, Weather by CustomWeather, © 2014

Note: Actual official high and low records may vary slightly from our data, if they occured in-between our weather recording intervals... More about our weather records

Advertising

Ta'izz weather history for previous 24 hours

 ConditionsComfort  
Time TempWeatherWind HumidityBarometerVisibility
7:00 AM
Dec 27
73 °FPartly sunny.8 mph69%30.04 "Hg5 mi
6:00 AM73 °FPassing clouds.7 mph69%30.01 "HgN/A
5:00 AM77 °FPassing clouds.12 mph61%30.01 "HgN/A
4:00 AM77 °FPassing clouds.12 mph61%30.01 "HgN/A
3:00 AM77 °FPassing clouds.13 mph61%30.01 "HgN/A
2:00 AM77 °FPassing clouds.12 mph61%30.01 "HgN/A
1:00 AM77 °FPassing clouds.12 mph61%30.04 "HgN/A
12:00 AM79 °FPartly cloudy.12 mph58%30.04 "HgN/A
11:00 PM
Dec 26
79 °FPartly cloudy.12 mph58%30.04 "HgN/A
10:00 PM79 °FPassing clouds.10 mph61%30.07 "HgN/A
9:00 PM79 °FPassing clouds.12 mph61%30.07 "HgN/A
8:00 PM79 °FPassing clouds.12 mph61%30.07 "HgN/A
7:00 PM79 °FPassing clouds.10 mph58%30.04 "HgN/A
6:00 PM79 °FPassing clouds.14 mph58%30.01 "HgN/A
5:00 PM81 °FPassing clouds.14 mph54%30.01 "HgN/A
4:00 PM82 °FScattered clouds.15 mph51%29.98 "HgN/A
3:00 PM82 °FScattered clouds.15 mph55%29.98 "HgN/A
2:00 PM82 °FScattered clouds.14 mph55%30.01 "HgN/A
1:00 PM82 °FPassing clouds.15 mph51%30.07 "HgN/A
12:00 PM82 °FPassing clouds.17 mph51%30.07 "HgN/A
11:00 AM82 °FPassing clouds.18 mph51%30.09 "HgN/A
10:00 AM81 °FScattered clouds.18 mph54%30.09 "HgN/A
9:00 AM81 °FScattered clouds.18 mph54%30.12 "HgN/A
8:00 AM75 °FScattered clouds.9 mph61%30.09 "HgN/A
Weather by CustomWeather, © 2014

See weather overviewHow to use our weather pages